STARLINK-34094, 63822

Orbit data source: Space-Track

STARLINK-34094, 63822 is a payload satellite owned by SpaceX/Seattle (US) in LEO that was launched on Sun, 04 May 2025 UTC via an FALCON 9 launch vehicle from the Air Force Eastern Test Range (AFETR). Payload-class satellites include a variety of spacecraft equipped with specific instruments for various scientific and technological missions. These include communications satellites like Starlink; space stations such as the ISS; scientific satellites like the Hubble; Earth observation satellites from companies like Planet Labs, Umbra, and HawkEye 360; GPS; miniature CubeSats for education and research; and military/defense satellites.

Loading next visibility...
Identifier
63822, 2025-092U
Orbit
LEO
Last TLE update
5 hours ago
Origin
Manufacturer
SpaceX/Seattle
Mission
Operational Commercial Communications
Bus & Motor
STARLINK V2MO, Unknown motor
Mass
575 kg wet, ~530 kg dry
Launch date (UTC)
2025-05-04 (2 months ago)
Launch vehicle
FALCON 9
Launch site
Air Force Eastern Test Range (AFETR)
Object type
Payload
Rocket body
Debris
Shape & HBR
Box + 1 Pan, 29 m
Radar Cross Section
41.120 m², Large (>1 m²)

Expand to show TLE details & history

TLE from 5 hours ago
0 STARLINK-34094
1 63822U 25092U   25192.25002315  .00047182  00000-0  17134-2 0  9996
2 63822  43.0008  92.8515 0001658 268.4766 191.4824 15.27574808 11779
Epoch: 2025-07-11T06:00Z
TLE epoch observation values (Epoch: 2025-07-11T06:00:02Z)
Latitude
42.35775°
Longitude
176.94811°
Altitude
487.155 km
Speed
7.627 km/s
True Right ascension
13h 05m 26s
True Declination
42° 10' 47"
Sunlit
Object was in daylight at epoch
Visualization orbit readout
Latitude
-6.90246°
Longitude
-100.3448°
Altitude
483.736 km
Speed
7.625 km/s
Apparent Right ascension
15h 50m 54s
Apparent Declination
-34° 44' 39"
Sunlit
Object is in full shadow
Visualization observer readout
Local Sidereal Time
23:24:02
Azimuth
253.143° W
Elevation
-37.937°
Doppler factor
1
Orbital elements
Apogee altitude
486.148 km
Perigee altitude
483.872 km
Semi-major axis
6,863.147 km
Eccentricity
0.00017
Inclination
43.0008°
RAAN
92.8515°
Arg. of periapsis
268.4766°
True anomaly
Unknown
Mean anomaly
191.4824°
Eccentric anomaly
Unknown
Mean motion
3.81732 °/min
Orbital period
94.31 mins
BSTAR
0.0017134
Loading maneuver chart data...
Loading SW <> Apogee altitude chart data...
Loading historical data...
Loading historical data...
Loading historical data...
Loading historical data...
Loading historical data...
Loading historical data...
Loading historical data...

STARLINK-34094 Visibility forecast

Observer location: undefined°, undefined°

Span
Click to sort rows by Start time (UTC) header in descending order
Start Az.
Max El. time (UTC)
Max El. Az.
Max El.
End time (UTC)
End Az.
4 mins2025-07-11 19:52:03.408Z182.719° SSW2025-07-11 19:54:03.408Z149.178° SSE16.277°2025-07-11 19:56:03.408Z111.581° ESE
5 mins2025-07-11 21:31:03.408Z238.312° WSW2025-07-11 21:33:03.408Z129.354° SE43.549°2025-07-11 21:36:03.408Z74.436° E
5 mins2025-07-11 23:10:03.408Z288.876° WNW2025-07-11 23:12:03.408Z2.884° NNE38.467°2025-07-11 23:15:03.408Z71.653° E
5 mins2025-07-12 00:49:03.408Z294.105° NW2025-07-12 00:51:03.408Z0.239° NNE43.164°2025-07-12 00:54:03.408Z96.614° ESE
5 mins2025-07-12 02:28:03.408Z261.845° W2025-07-12 02:30:03.408Z206.614° SW29.453°2025-07-12 02:33:03.408Z146.235° SSE
|